Time,TemperatureF,DewpointF,PressureIn,WindDirection,WindDirectionDegrees,WindSpeedMPH,WindSpeedGustMPH,Humidity,HourlyPrecipIn,Conditions,Clouds,dailyrainin,SoftwareType,DateUTC
2013-06-20 00:02:00,71.0,63.0,-100.00,SE,135,3.0,5.0,78,0.00,,,-99.99,,2013-06-20 05:02:00,
2013-06-20 00:12:00,70.0,64.0,-100.00,ESE,105,3.0,4.0,80,0.00,,,-99.99,,2013-06-20 05:12:00,
2013-06-20 00:22:00,70.0,64.0,-100.00,ESE,115,3.0,4.0,81,0.00,,,-99.99,,2013-06-20 05:22:00,
2013-06-20 00:33:00,70.0,64.0,-100.00,ESE,115,3.0,4.0,81,0.00,,,-99.99,,2013-06-20 05:33:00,
2013-06-20 00:44:00,70.0,64.0,-100.00,SE,135,2.0,4.0,82,0.00,,,-99.99,,2013-06-20 05:44:00,
2013-06-20 00:52:00,69.0,64.0,-100.00,ESE,115,2.0,4.0,83,0.00,,,-99.99,,2013-06-20 05:52:00,
2013-06-20 01:02:00,69.0,64.0,-100.00,ESE,115,2.0,4.0,83,0.00,,,-99.99,,2013-06-20 06:02:00,
2013-06-20 01:11:00,69.0,64.0,-100.00,ESE,110,3.0,4.0,84,0.00,,,-99.99,,2013-06-20 06:11:00,
2013-06-20 01:22:00,70.0,65.0,-100.00,ESE,105,4.0,5.0,83,0.00,,,-99.99,,2013-06-20 06:22:00,
2013-06-20 01:33:00,70.0,65.0,-100.00,ESE,105,4.0,5.0,83,0.00,,,-99.99,,2013-06-20 06:33:00,
2013-06-20 01:43:00,70.0,64.0,-100.00,East,100,3.0,6.0,83,0.00,,,-99.99,,2013-06-20 06:43:00,
2013-06-20 01:53:00,69.0,64.0,-100.00,East,100,4.0,6.0,82,0.00,,,-99.99,,2013-06-20 06:53:00,
2013-06-20 02:01:00,69.0,63.0,-100.00,ESE,120,3.0,6.0,82,0.00,,,-99.99,,2013-06-20 07:01:00,
2013-06-20 02:12:00,69.0,63.0,-100.00,ESE,120,3.0,6.0,82,0.00,,,-99.99,,2013-06-20 07:12:00,
2013-06-20 02:22:00,69.0,63.0,-100.00,ESE,120,4.0,5.0,82,0.00,,,-99.99,,2013-06-20 07:22:00,
2013-06-20 02:34:00,69.0,63.0,-100.00,ESE,120,4.0,5.0,82,0.00,,,-99.99,,2013-06-20 07:34:00,
2013-06-20 02:44:00,69.0,63.0,-100.00,ESE,115,3.0,7.0,81,0.00,,,-99.99,,2013-06-20 07:44:00,
2013-06-20 02:53:00,69.0,63.0,-100.00,ESE,115,3.0,7.0,81,0.00,,,-99.99,,2013-06-20 07:53:00,
2013-06-20 03:02:00,69.0,63.0,-100.00,ESE,110,4.0,7.0,81,0.00,,,-99.99,,2013-06-20 08:02:00,
2013-06-20 03:11:00,69.0,63.0,-100.00,ESE,115,4.0,6.0,81,0.00,,,-99.99,,2013-06-20 08:11:00,
2013-06-20 03:22:00,69.0,63.0,-100.00,ESE,115,4.0,6.0,81,0.00,,,-99.99,,2013-06-20 08:22:00,
2013-06-20 03:34:00,68.0,63.0,-100.00,ESE,120,4.0,7.0,81,0.00,,,-99.99,,2013-06-20 08:34:00,
2013-06-20 03:43:00,68.0,62.0,-100.00,ESE,120,4.0,7.0,81,0.00,,,-99.99,,2013-06-20 08:43:00,
2013-06-20 03:53:00,68.0,62.0,-100.00,ESE,120,4.0,7.0,81,0.00,,,-99.99,,2013-06-20 08:53:00,
2013-06-20 04:02:00,68.0,63.0,-100.00,ESE,105,4.0,6.0,82,0.00,,,-99.99,,2013-06-20 09:02:00,
2013-06-20 04:12:00,68.0,62.0,-100.00,SE,125,3.0,6.0,83,0.00,,,-99.99,,2013-06-20 09:12:00,
2013-06-20 04:22:00,68.0,63.0,-100.00,East,100,4.0,5.0,84,0.00,,,-99.99,,2013-06-20 09:22:00,
2013-06-20 04:33:00,68.0,63.0,-100.00,East,100,4.0,5.0,84,0.00,,,-99.99,,2013-06-20 09:33:00,
2013-06-20 04:42:00,68.0,63.0,-100.00,ESE,105,5.0,6.0,84,0.00,,,-99.99,,2013-06-20 09:42:00,
2013-06-20 04:52:00,68.0,63.0,-100.00,ESE,110,4.0,6.0,84,0.00,,,-99.99,,2013-06-20 09:52:00,
2013-06-20 05:01:00,68.0,63.0,-100.00,ESE,110,4.0,6.0,84,0.00,,,-99.99,,2013-06-20 10:01:00,
2013-06-20 05:11:00,68.0,63.0,-100.00,ESE,115,3.0,5.0,84,0.00,,,-99.99,,2013-06-20 10:11:00,
2013-06-20 05:22:00,67.0,63.0,-100.00,ESE,105,4.0,6.0,84,0.00,,,-99.99,,2013-06-20 10:22:00,
2013-06-20 05:34:00,67.0,63.0,-100.00,ESE,105,4.0,6.0,84,0.00,,,-99.99,,2013-06-20 10:34:00,
2013-06-20 05:43:00,68.0,63.0,-100.00,East,100,5.0,6.0,84,0.00,,,-99.99,,2013-06-20 10:43:00,
2013-06-20 05:53:00,67.0,62.0,-100.00,SE,135,3.0,6.0,84,0.00,,,-99.99,,2013-06-20 10:53:00,
2013-06-20 06:02:00,67.0,62.0,-100.00,SE,125,3.0,7.0,84,0.00,,,-99.99,,2013-06-20 11:02:00,
2013-06-20 06:12:00,67.0,62.0,-100.00,SE,125,3.0,7.0,84,0.00,,,-99.99,,2013-06-20 11:12:00,
2013-06-20 06:22:00,67.0,63.0,-100.00,ESE,115,4.0,6.0,84,0.00,,,-99.99,,2013-06-20 11:22:00,
2013-06-20 06:34:00,67.0,63.0,-100.00,ESE,115,4.0,6.0,84,0.00,,,-99.99,,2013-06-20 11:34:00,
2013-06-20 06:42:00,68.0,62.0,-100.00,ESE,115,4.0,7.0,81,0.00,,,-99.99,,2013-06-20 11:42:00,
2013-06-20 06:53:00,69.0,61.0,-100.00,ESE,105,7.0,9.0,75,0.00,,,-99.99,,2013-06-20 11:53:00,
2013-06-20 07:02:00,69.0,61.0,-100.00,ESE,105,7.0,9.0,75,0.00,,,-99.99,,2013-06-20 12:02:00,
2013-06-20 07:11:00,69.0,61.0,-100.00,ESE,105,7.0,9.0,75,0.00,,,-99.99,,2013-06-20 12:11:00,
2013-06-20 07:22:00,71.0,62.0,-100.00,ESE,115,4.0,9.0,74,0.00,,,-99.99,,2013-06-20 12:22:00,
2013-06-20 07:34:00,71.0,61.0,-100.00,ESE,120,6.0,9.0,70,0.00,,,-99.99,,2013-06-20 12:34:00,
2013-06-20 07:43:00,72.0,61.0,-100.00,ESE,110,6.0,9.0,69,0.00,,,-99.99,,2013-06-20 12:43:00,
2013-06-20 07:53:00,72.0,61.0,-100.00,ESE,110,6.0,9.0,69,0.00,,,-99.99,,2013-06-20 12:53:00,
2013-06-20 08:02:00,73.0,61.0,-100.00,ESE,110,6.0,8.0,67,0.00,,,-99.99,,2013-06-20 13:02:00,
2013-06-20 08:11:00,73.0,62.0,-100.00,East,100,6.0,8.0,66,0.00,,,-99.99,,2013-06-20 13:11:00,
2013-06-20 08:22:00,73.0,62.0,-100.00,East,100,6.0,8.0,66,0.00,,,-99.99,,2013-06-20 13:22:00,
2013-06-20 08:33:00,73.0,62.0,-100.00,East,100,7.0,9.0,67,0.00,,,-99.99,,2013-06-20 13:33:00,
2013-06-20 08:42:00,76.0,63.0,-100.00,SE,125,5.0,9.0,63,0.00,,,-99.99,,2013-06-20 13:42:00,
2013-06-20 08:53:00,77.0,63.0,-100.00,ESE,105,5.0,8.0,61,0.00,,,-99.99,,2013-06-20 13:53:00,
2013-06-20 09:02:00,77.0,63.0,-100.00,ESE,105,5.0,8.0,61,0.00,,,-99.99,,2013-06-20 14:02:00,
2013-06-20 09:11:00,77.0,62.0,-100.00,ESE,110,7.0,10.0,59,0.00,,,-99.99,,2013-06-20 14:11:00,
2013-06-20 09:22:00,79.0,63.0,-100.00,ESE,110,7.0,9.0,58,0.00,,,-99.99,,2013-06-20 14:22:00,
2013-06-20 09:32:00,81.0,64.0,-100.00,SE,135,9.0,13.0,56,0.00,,,-99.99,,2013-06-20 14:32:00,
2013-06-20 09:42:00,81.0,64.0,-100.00,SE,135,9.0,13.0,56,0.00,,,-99.99,,2013-06-20 14:42:00,
2013-06-20 09:53:00,83.0,65.0,-100.00,ESE,105,6.0,11.0,55,0.00,,,-99.99,,2013-06-20 14:53:00,
2013-06-20 10:02:00,83.0,65.0,-100.00,ESE,105,6.0,11.0,55,0.00,,,-99.99,,2013-06-20 15:02:00,
2013-06-20 10:11:00,84.0,65.0,-100.00,ESE,110,6.0,12.0,52,0.00,,,-99.99,,2013-06-20 15:11:00,
2013-06-20 10:22:00,83.0,65.0,-100.00,SSE,165,8.0,16.0,53,0.00,,,-99.99,,2013-06-20 15:22:00,
2013-06-20 10:33:00,83.0,65.0,-100.00,SSE,165,8.0,16.0,53,0.00,,,-99.99,,2013-06-20 15:33:00,
2013-06-20 10:43:00,85.0,66.0,-100.00,SSE,160,7.0,14.0,52,0.00,,,-99.99,,2013-06-20 15:43:00,
2013-06-20 10:53:00,85.0,65.0,-100.00,SE,135,9.0,14.0,51,0.00,,,-99.99,,2013-06-20 15:53:00,
2013-06-20 11:01:00,85.0,66.0,-100.00,SSE,160,7.0,15.0,52,0.00,,,-99.99,,2013-06-20 16:01:00,
2013-06-20 11:12:00,86.0,66.0,-100.00,SE,145,9.0,14.0,51,0.00,,,-99.99,,2013-06-20 16:12:00,
2013-06-20 11:22:00,86.0,66.0,-100.00,SE,145,9.0,14.0,51,0.00,,,-99.99,,2013-06-20 16:22:00,
2013-06-20 11:33:00,86.0,66.0,-100.00,SSE,150,10.0,15.0,50,0.01,,,-99.99,,2013-06-20 16:33:00,
2013-06-20 11:42:00,87.0,66.0,-100.00,SSE,155,7.0,12.0,50,0.01,,,-99.99,,2013-06-20 16:42:00,
2013-06-20 11:52:00,87.0,66.0,-100.00,SSE,155,7.0,12.0,50,0.01,,,-99.99,,2013-06-20 16:52:00,
2013-06-20 12:02:00,87.0,67.0,-100.00,SSE,155,11.0,16.0,50,0.03,,,-99.99,,2013-06-20 17:02:00,
2013-06-20 12:11:00,88.0,67.0,-100.00,SSE,160,7.0,17.0,50,0.01,,,-99.99,,2013-06-20 17:11:00,
2013-06-20 12:22:00,88.0,67.0,-100.00,SSE,160,7.0,17.0,50,0.01,,,-99.99,,2013-06-20 17:22:00,
2013-06-20 12:32:00,88.0,67.0,-100.00,SE,135,8.0,15.0,50,0.01,,,-99.99,,2013-06-20 17:32:00,
2013-06-20 12:43:00,88.0,67.0,-100.00,SSE,150,7.0,16.0,49,0.00,,,-99.99,,2013-06-20 17:43:00,
2013-06-20 12:53:00,88.0,66.0,-100.00,South,170,11.0,17.0,48,0.00,,,-99.99,,2013-06-20 17:53:00,
2013-06-20 13:01:00,88.0,66.0,-100.00,South,170,11.0,17.0,48,0.00,,,-99.99,,2013-06-20 18:01:00,
2013-06-20 13:11:00,88.0,66.0,-100.00,SSE,165,9.0,17.0,48,0.00,,,-99.99,,2013-06-20 18:11:00,
2013-06-20 13:22:00,89.0,66.0,-100.00,SSE,150,10.0,21.0,47,0.00,,,-99.99,,2013-06-20 18:22:00,
2013-06-20 13:33:00,89.0,66.0,-100.00,SSE,150,10.0,21.0,47,0.00,,,-99.99,,2013-06-20 18:33:00,
2013-06-20 13:43:00,88.0,65.0,-100.00,South,175,11.0,21.0,47,0.00,,,-99.99,,2013-06-20 18:43:00,
2013-06-20 13:53:00,88.0,65.0,-100.00,SSE,160,12.0,21.0,46,0.00,,,-99.99,,2013-06-20 18:53:00,
2013-06-20 14:01:00,89.0,66.0,-100.00,SSE,150,12.0,21.0,46,0.00,,,-99.99,,2013-06-20 19:01:00,
2013-06-20 14:11:00,89.0,66.0,-100.00,SSE,150,12.0,21.0,46,0.00,,,-99.99,,2013-06-20 19:11:00,
2013-06-20 14:22:00,89.0,66.0,-100.00,SSE,150,10.0,17.0,46,0.00,,,-99.99,,2013-06-20 19:22:00,
2013-06-20 14:34:00,89.0,66.0,-100.00,SSE,150,10.0,17.0,46,0.00,,,-99.99,,2013-06-20 19:34:00,
2013-06-20 14:43:00,88.0,65.0,-100.00,South,175,9.0,22.0,45,0.00,,,-99.99,,2013-06-20 19:43:00,
2013-06-20 14:52:00,89.0,65.0,-100.00,SSE,155,11.0,19.0,45,0.00,,,-99.99,,2013-06-20 19:52:00,
2013-06-20 15:02:00,90.0,65.0,-100.00,South,170,12.0,19.0,44,0.00,,,-99.99,,2013-06-20 20:02:00,
2013-06-20 15:11:00,90.0,66.0,-100.00,SSE,165,9.0,24.0,44,0.00,,,-99.99,,2013-06-20 20:11:00,
2013-06-20 15:22:00,90.0,66.0,-100.00,SSE,165,9.0,24.0,44,0.00,,,-99.99,,2013-06-20 20:22:00,
2013-06-20 15:33:00,90.0,65.0,-100.00,SSE,155,12.0,19.0,43,0.00,,,-99.99,,2013-06-20 20:33:00,
2013-06-20 15:42:00,89.0,64.0,-100.00,South,180,12.0,24.0,43,0.00,,,-99.99,,2013-06-20 20:42:00,
2013-06-20 16:01:00,89.0,64.0,-100.00,South,175,12.0,21.0,43,0.00,,,-99.99,,2013-06-20 21:01:00,